Погода в Николаевке

Украина / Харьковская область     49°55′22″N   37°53′21″E
темп.,
°C
ветер,
м/с
пор.,
м/с
влажн.,
%
обл.,
%
осадки,
мм/ч
давл.,
гПа
погр.,
м
19 января, вт
вт1923:00−15в119686 0.0 101820
02:00−15ююв119794 0.4 101821
05:00−15зюз1197100 0.3 101820
08:00−14с1197100 0.5 101822
11:00−13сз1189100 0.1 1019299
14:00−12зсз3490100 0.2 1018460
17:00−15сз239593 0.1 102028
20:00−17сз229687 0.1 102121
20 января, ср
ср2023:00−19зсз229568 0.0 102224
02:00−20зсз239634 0.0 102337
05:00−20зсз23953 0.0 102428
08:00−20з22963 0.0 102628
11:00−16з34916 0.0 1027249
14:00−14з249234 0.0 1026302
17:00−17зюз129523 0.0 102820
20:00−18юз229725 0.0 102920
21 января, чт
чт2123:00−18юз22963 0.0 103020
02:00−19юз23941 0.0 103030
05:00−19ююз34940 0.0 103051
08:00−18ю36920 0.0 1030116
11:00−13ююз588544 0.0 1028262
14:00−9ююз6129227 0.0 1026378
17:00−5юз61394100 0.1 1025602
20:00−2юз61494100 0.2 1023495
22 января, пт
пт2223:000юз61393100 0.0 1022554
02:000юз5129499 0.0 1022478
05:000юз61096100 0.0 1020484
08:00+1юз71197100 0.0 1021540
11:00+2юз713100100 0.0 1021539
14:00+2юз614100100 0.0 1020546
17:000ююз4129577 0.0 1019325
20:00+1ююз5129685 0.0 1020442
23 января, сб
сб2323:00+1ююз51394100 0.0 1019397
02:00+1ююз51395100 0.0 1019413
05:00+2ю51197100 0.0 1018352
08:00+2ююз51397100 0.0 1019370
11:00+2ю512100100 0.0 1018364
14:00+2ю512100100 0.0 1018363
17:00+2ю5129898 0.0 1017302
20:00+2ю5129899 0.0 1017323